Location: Anjeux
(47.8815°N, 6.2076°E)
Time: 12:36:17
(UTC+00:00)

Cosmos 1606 - Pass Details

Date: 05 March 2021
Orbit: 502 x 527 km, 82.5° (Epoch: 19 April)

Event Time Altitude Azimuth Distance (km) Brightness Sun altitude
Exits shadow 04:10:33 20° 180° (S) 1,251 4.5 -20.4°
Maximum altitude 04:13:08 74° 98° (E) 554 2.9 -20.0°
Drops below altitude 10° 04:17:03 10° 13° (NNE) 1,785 5.7 -19.4°
Sets 04:19:12 0° 11° (NNE) 2,679 6.7 -19.0°
